リニア彗星

C/2010 R1 ( LINEAR )

English version
Home page
Updated on May 15, 2012

---------------------------------------------------------------------

・ プロフィール

発見日 2010年9月4日
発見光度 20.5等
発見者 Lincoln Laboratory Near-Earth Asteroid Research project

・ 写真集

・ 軌道要素

Epoch 2012 June 2.0 TT = JDT 2456080.5
T 2012 May 18.90308 TT                                  MPC
q   5.6213964            (2000.0)            P               Q
z  -0.0006507      Peri.  114.49702     -0.63356713     -0.76578542
 +/-0.0000010      Node   343.64951     -0.77180225     +0.63551436
e   1.0036579      Incl.  156.93339     +0.05398125     +0.09845907
From 513 observations 2010 Sept. 4-2012 Apr. 28, mean residual 0".6.

・ 光度変化

        m1 = 6.0 + 5 logΔ + 10.0 log r

---------------------------------------------------------------------

軌道要素はM.P.E.C. 2012-H90に掲載されたものです。
光度グラフはComet for Windowsで作成したものです。

---------------------------------------------------------------------

Copyright(C) Seiichi Yoshida (comet@aerith.net). All rights reserved.